Theta_e
299 299 298 299 299 299 299 300 300 300 299 299 298 298 297 296 295 294 293 292 292 292
296 297 296 297 298 298 299 299 299 299 298 298 297 296 295 294 293 293 291 290 290 290
296 296 295 296 296 297 297 298 298 298 297 297 296 296 295 293 292 292 291 291 290 290
295 295 294 296 296 296 296 297 297 297 297 296 295 295 294 294 293 292 290 290 290 290
295 295 294 294 295 296 296 297 297 297 296 296 295 295 294 292 293 292 290 291 290 289
289 291 293 294 294 295 296 296 297 296 296 295 295 294 294 293 293 292 292 290 290 289
285 286 289 292 294 294 295 295 295 296 295 295 294 294 293 293 292 291 291 290 290 289
283 285 286 287 289 293 293 294 295 294 293 294 293 293 292 291 291 290 288 288 289 289
281 282 283 284 285 288 290 291 291 291 292 291 293 294 293 292 290 289 288 287 287 287
277 280 281 283 284 284 285 286 287 284 287 288 290 293 293 292 290 288 288 287 287 285
275 277 279 281 282 284 284 284 285 285 284 281 283 293 293 291 286 287 286 287 287 287
273 275 275 277 279 283 284 284 284 285 285 285 285 289 292 290 283 284 284 285 285 286
272 274 274 275 277 280 283 284 284 284 285 285 284 286 291 290 285 280 281 277 280 284
271 272 274 274 276 277 279 283 284 284 284 284 285 285 287 292 282 285 281 283 282 283
Wind_Speed
12 10 9 13 12 11 12 12 15 15 14 14 13 11 10 8 7 8 6 8 5 4
7 10 10 13 12 11 11 10 13 15 14 13 13 13 12 8 10 8 7 6 6 4
8 7 8 11 12 12 11 11 12 14 13 13 14 14 14 9 7 8 5 5 7 4
7 7 8 11 11 11 11 12 14 15 14 14 14 14 13 11 12 11 9 6 8 7
2 5 6 7 10 11 12 13 14 15 15 14 14 13 15 14 13 15 13 12 10 9
13 10 3 7 9 10 11 12 12 13 15 15 14 14 14 14 14 14 13 13 12 11
14 13 11 7 4 8 10 11 11 12 13 14 14 14 13 13 12 12 12 12 11 11
14 13 13 12 10 2 7 9 10 10 8 10 11 10 12 12 13 14 11 10 10 11
16 15 14 13 12 11 6 1 6 8 10 10 9 15 19 15 12 12 13 13 11 9
16 15 15 14 13 12 11 8 4 1 5 8 8 15 20 18 10 11 11 11 11 8
16 16 15 13 12 11 10 8 5 5 3 1 3 10 19 17 7 8 7 9 11 12
16 15 15 15 14 11 8 7 6 3 4 3 4 6 12 14 6 6 8 7 8 10
14 14 14 14 13 12 10 5 4 4 4 3 3 5 6 12 6 5 5 2 5 12
13 13 13 13 11 11 11 10 8 5 3 2 2 3 6 7 3 5 4 6 5 7
Wind_Direction
181 181 178 181 183 186 191 195 187 189 184 184 178 171 170 175 176 174 174 172 167 160
160 175 177 181 184 185 187 189 186 190 184 178 170 166 165 171 180 177 163 171 165 155
166 167 163 174 179 185 188 183 177 184 185 177 174 173 170 167 164 171 171 160 165 163
170 171 164 182 184 183 178 179 179 183 184 184 181 178 175 176 164 169 166 170 172 175
160 177 168 175 184 179 182 184 181 182 184 186 185 181 179 172 175 174 177 179 174 180
20 4 238 185 186 180 177 181 181 180 185 184 184 180 187 183 177 178 180 180 182 180
11 5 3 349 199 166 173 174 178 184 185 184 184 186 187 183 177 178 180 182 183 178
5 6 5 9 4 337 164 174 178 173 176 180 182 184 181 183 180 181 178 180 184 187
7 9 8 5 4 13 19 265 161 173 176 175 187 191 187 181 184 186 182 186 191 184
3 6 6 7 11 11 10 5 10 307 167 184 191 185 187 185 184 185 191 189 183 178
1 360 360 3 4 8 3 4 4 5 339 288 229 194 186 182 170 182 189 189 182 185
356 354 358 357 353 347 355 358 360 349 4 332 282 302 183 172 167 181 190 181 180 183
351 353 356 349 342 343 346 339 350 360 4 10 320 295 249 181 171 173 179 167 176 187
351 353 351 343 343 347 350 356 0 0 358 14 5 329 305 226 159 196 167 189 195 202